Regional Weather Roundup
Issued by NWS Bismarck, ND

Home | Current Version | Previous Version | Text Only | Print | Product List | Glossary On
Versions: 1 2 3 4 5 6 7 8 9 10 11 12 13 14 15 16 17 18 19 20 21 22 23 24 25 26 27 28 29 30 31 32 33 34 35 36 37 38 39 40 41 42 43 44 45 46 47 48 49 50
000
ASUS43 KBIS 252102
RWRBIS

NWR BROADCAST TEXT
NATIONAL WEATHER SERVICE BISMARCK ND
400 PM CDT MON SEP 25 2017

NOTE: "FAIR" INDICATES FEW OR NO CLOUDS BELOW 12,000 FEET WITH NO
SIGNIFICANT WEATHER AND/OR OBSTRUCTIONS TO VISIBILITY.


CITY           SKY/WX    TMP DP  RH WIND       PRES   REMARKS
WILLISTON      CLOUDY    52  44  74 NE5       30.12F
MINOT          CLOUDY    55  42  61 E6        30.12F
MINOT AFB      CLOUDY    54  41  61 E6        30.11F
BISMARCK       CLOUDY    53  43  68 NE5       30.12F
DICKINSON      CLOUDY    46  42  86 S6        30.10F
GARRISON         N/A     50  44  80 S3        30.13S
HETTINGER ARPT CLOUDY    49  38  65 CALM      30.12F
JAMESTOWN      CLOUDY    50  43  77 N7        30.11F
CARRINGTON     CLOUDY    50  43  76 NE7       30.15F
HAZEN          CLOUDY    52  45  76 CALM      30.14F
LINTON         CLOUDY    52  41  66 NE7       30.13S
MANDAN         CLOUDY    50  46  87 NW6       30.12F
RUGBY          MOCLDY    54  43  66 NE10      30.12F
STANLEY        CLOUDY    52  41  66 E6        30.14F
TIOGA          CLOUDY    50  45  81 SE3       30.14S
WATFORD CITY   DRIZZLE   48  45  87 SW6       30.12S
$$

CITY           SKY/WX    TMP DP  RH WIND       PRES   REMARKS
GRAND FORKS    CLOUDY    53  47  79 N12       30.12R
GRAND FORKS AF CLOUDY    52  45  76 NE14      30.13R
DEVILS LAKE    CLOUDY    51  41  68 NE10      30.14F
FARGO          CLOUDY    53  47  79 N12       30.10R
CANDO          CLOUDY    54  41  62 N7        30.16S
CAVALIER       CLOUDY    54  45  71 N9        30.14R
GRAFTON        CLOUDY    52  46  82 N10       30.15S
GWINNER        CLOUDY    52  46  82 N9        30.09F
LANGDON        CLOUDY    50  45  81 NE9       30.15S
ROLLA          CLOUDY    54  39  58 N9        30.15S
WALHALLA       FAIR     N/A N/A N/A N9G17     30.15R
$$

CITY           SKY/WX    TMP DP  RH WIND       PRES   REMARKS
ABERDEEN       CLOUDY    53  47  79 N10       30.10F
MOBRIDGE       CLOUDY    53  45  74 N9        30.09R
RAPID CITY     CLOUDY    52  43  71 E8        30.10S
GLASGOW        PTSUNNY   59  35  40 E10       30.06S
SIDNEY           N/A    N/A N/A N/A MISG        N/A
WOLF POINT     CLOUDY    54  37  52 SE7       30.10F
GLENDIVE       CLOUDY    45  41  86 SW5       30.12F
MILES CITY     LGT RAIN  44  41  89 S10       30.11F
BAKER          CLOUDY    47  38  71 CALM      30.11F
$$

CITY           SKY/WX    TMP DP  RH WIND       PRES   REMARKS
BILLINGS       CLOUDY    58  35  42 VRB5      30.03F
GREAT FALLS    SUNNY     60  32  34 NW5       30.01S
$$





USA.gov is the U.S. government's official web portal to all federal, state and local government web resources and services.